Location: Ehingen
(48.2869°N, 9.7112°E)
Time: 06:25:10
(UTC+01:00)

ISS - Pass Details

Date: 12 November 2017
Orbit: 402 x 407 km, 51.6° (Epoch: 23 November)

Event Time Altitude Azimuth Distance (km) Brightness Sun altitude
Exits shadow 04:19:40 12° 72° (ENE) 1,338 -0.4 -30.6°
Drops below altitude 10° 04:19:58 10° 74° (ENE) 1,457 -0.1 -30.6°
Sets 04:22:06 0° 81° (E) 2,317 1.2 -30.2°
